Weather History for Molokai, HI

Change the Weather History Date:

Saturday, February 8, 2014

  Actual Average Record
Temperature  
Mean Temperature 71 °F -  
Max Temperature 73 °F 77 °F 82 °F (1980)
Min Temperature 69 °F 62 °F 55 °F (1987)
Cooling Degree Days 6    
Growing Degree Days 21 (Base 50)    
Moisture  
Dew Point 70 °F    
Average Humidity 100    
Maximum Humidity 100    
Minimum Humidity 96    
Precipitation  
Precipitation 0.87 in - - ()
Sea Level Pressure  
Sea Level Pressure 29.96 in    
Wind  
Wind Speed 11 mph (North)    
Max Wind Speed 15 mph    
Max Gust Speed 24 mph    
Visibility 4 miles    
Events Rain    
Averages and records for this station are not official NWS values.
T = Trace of Precipitation, MM = Missing Value Source: NWS Daily Summary

Daily Weather History Graph

Daily Weather History Graph

Search for Another Location

Airport:

Trip Planner

Search our weather history database for the weather conditions in past years. The results will help you decide how hot, cold, wet, or windy it might be!

Date:

Astronomy

Feb. 08, 2014 Rise Set
Actual Time 7:02 AM HST 6:22 PM HST
Civil Twilight 6:39 AM HST 6:45 PM HST
Nautical Twilight 6:13 AM HST 7:12 PM HST
Astronomical Twilight 5:47 AM HST 7:38 PM HST
Moon 1:36 PM HST (2/8) 2:14 AM HST (2/8)
Length of Visible Light 12h 06m
Length of Day
11h 20m
Waxing Gibbous, 70% of the Moon is Illuminated
Feb 8
Waxing Gibbous
Feb 14
Full
Feb 22
Last Quarter
Feb 28
New
Mar 8
First Quarter

Hourly Weather History & Observations

Time (HST) Temp. Dew Point Humidity Pressure Visibility Wind Dir Wind Speed Gust Speed Precip Events Conditions
12:03 AM 69.8 °F 69.8 °F 100% 29.95 in 3.0 mi North 11.5 mph - 0.01 in Rain Rain
12:12 AM 69.8 °F 69.8 °F 100% 29.95 in 3.0 mi North 11.5 mph - 0.02 in Rain Light Rain
12:20 AM 69.8 °F 69.8 °F 100% 29.95 in 4.0 mi North 11.5 mph - 0.02 in Rain Light Rain
12:41 AM 69.8 °F 69.8 °F 100% 29.95 in 2.5 mi North 12.7 mph 19.6 mph 0.03 in Rain Light Rain
12:54 AM 69.1 °F 69.1 °F 100% 29.96 in 3.0 mi North 12.7 mph 19.6 mph 0.04 in Rain Light Rain
1:05 AM 69.8 °F 69.8 °F 100% 29.94 in 3.0 mi NNE 10.4 mph 19.6 mph 0.00 in Rain Light Rain
1:14 AM 69.8 °F 69.8 °F 100% 29.94 in 4.0 mi NNE 11.5 mph 18.4 mph 0.01 in Rain Light Rain
1:26 AM 69.8 °F 69.8 °F 100% 29.94 in 9.0 mi North 10.4 mph - 0.01 in Rain Light Rain
1:54 AM 69.1 °F 69.1 °F 100% 29.95 in 9.0 mi North 9.2 mph 17.3 mph 0.01 in Rain Light Rain
2:03 AM 69.8 °F 69.8 °F 100% 29.94 in 7.0 mi North 11.5 mph - 0.00 in Rain Light Rain
2:16 AM 69.8 °F 69.8 °F 100% 29.93 in 8.0 mi North 11.5 mph 18.4 mph 0.00 in   Overcast
2:26 AM 69.8 °F 69.8 °F 100% 29.93 in 6.0 mi North 11.5 mph - 0.00 in Rain Light Rain
2:54 AM 69.1 °F 69.1 °F 100% 29.94 in 4.0 mi North 12.7 mph 18.4 mph 0.00 in Rain Light Rain
3:10 AM 69.8 °F 69.8 °F 100% 29.92 in 9.0 mi NNE 9.2 mph 17.3 mph 0.00 in Rain Light Rain
3:35 AM 69.8 °F 69.8 °F 100% 29.92 in 10.0 mi North 12.7 mph - 0.00 in   Overcast
3:54 AM 69.1 °F 69.1 °F 100% 29.93 in 10.0 mi North 10.4 mph - 0.00 in   Overcast
4:54 AM 69.1 °F 69.1 °F 100% 29.94 in 4.0 mi North 9.2 mph - 0.02 in Rain Light Rain
5:31 AM 69.8 °F 69.8 °F 100% 29.94 in 10.0 mi North 10.4 mph - 0.00 in   Overcast
5:54 AM 70.0 °F 70.0 °F 100% 29.94 in 10.0 mi North 6.9 mph - 0.00 in   Overcast
6:54 AM 69.1 °F 69.1 °F 100% 29.96 in 7.0 mi NNE 6.9 mph - 0.00 in   Overcast
7:15 AM 69.8 °F 69.8 °F 100% 29.96 in 7.0 mi North 6.9 mph - 0.00 in Rain Light Rain
7:27 AM 69.8 °F 69.8 °F 100% 29.95 in 2.5 mi North 8.1 mph - 0.00 in Rain Light Rain
7:29 AM 69.8 °F 69.8 °F 100% 29.95 in 5.0 mi North 8.1 mph - 0.00 in Rain Light Rain
7:35 AM 69.8 °F 69.8 °F 100% 29.96 in 5.0 mi NNE 6.9 mph - 0.00 in Rain Light Rain
7:54 AM 71.1 °F 71.1 °F 100% 29.97 in 7.0 mi North 5.8 mph - 0.01 in Rain Light Rain
8:01 AM 71.6 °F 71.6 °F 100% 29.96 in 7.0 mi North 8.1 mph - 0.00 in Rain Light Rain
8:54 AM 71.1 °F 71.1 °F 100% 29.98 in 7.0 mi NE 10.4 mph 17.3 mph 0.00 in   Mostly Cloudy
9:01 AM 71.6 °F 71.6 °F 100% 29.97 in 10.0 mi NNE 8.1 mph 16.1 mph N/A   Mostly Cloudy
9:42 AM 71.6 °F 71.6 °F 100% 29.99 in 6.0 mi North 9.2 mph - 0.00 in Rain Light Rain
9:54 AM 71.1 °F 71.1 °F 100% 30.01 in 6.0 mi NNE 8.1 mph - 0.00 in   Mostly Cloudy
10:04 AM 71.6 °F 71.6 °F 100% 30.00 in 6.0 mi North 8.1 mph - N/A   Mostly Cloudy
10:54 AM 73.0 °F 72.0 °F 96% 30.01 in 6.0 mi North 10.4 mph - 0.00 in Rain Light Rain
10:59 AM 71.6 °F 71.6 °F 100% 30.00 in 2.5 mi North 9.2 mph - 0.00 in Rain Light Rain
11:28 AM 71.6 °F 71.6 °F 100% 29.99 in 2.0 mi North 13.8 mph 17.3 mph 0.00 in Rain Light Rain
11:37 AM 73.4 °F 73.4 °F 100% 29.99 in 1.8 mi North 9.2 mph - 0.00 in Rain Light Rain
11:40 AM 73.4 °F 73.4 °F 100% 29.99 in 1.5 mi North 11.5 mph 16.1 mph 0.00 in Rain Light Rain
11:44 AM 71.6 °F 71.6 °F 100% 29.99 in 1.8 mi North 10.4 mph 16.1 mph 0.00 in Rain Light Rain
11:49 AM 73.4 °F 73.4 °F 100% 29.99 in 2.0 mi North 11.5 mph 16.1 mph 0.00 in Rain Light Rain
11:54 AM 73.0 °F 73.0 °F 100% 30.00 in 2.0 mi North 11.5 mph - 0.00 in Rain Light Rain
11:58 AM 71.6 °F 71.6 °F 100% 29.98 in 1.8 mi North 12.7 mph 17.3 mph 0.00 in Rain Light Rain
12:11 PM 71.6 °F 71.6 °F 100% 29.98 in 1.8 mi North 11.5 mph - 0.01 in Rain Light Rain
12:34 PM 71.6 °F 71.6 °F 100% 29.97 in 1.5 mi North 12.7 mph 17.3 mph 0.01 in   Overcast
12:48 PM 71.6 °F 71.6 °F 100% 29.96 in 1.8 mi North 10.4 mph 18.4 mph 0.02 in Rain Light Rain
12:54 PM 71.1 °F 71.1 °F 100% 29.97 in 1.5 mi North 10.4 mph - 0.02 in Rain Light Rain
1:01 PM 71.6 °F 71.6 °F 100% 29.96 in 1.5 mi North 12.7 mph - 0.00 in Rain Light Rain
1:54 PM 72.0 °F 72.0 °F 100% 29.95 in 1.5 mi North 10.4 mph - 0.02 in Rain Light Rain
2:01 PM 71.6 °F 71.6 °F 100% 29.93 in 2.0 mi North 9.2 mph - 0.00 in Rain Light Rain
2:13 PM 71.6 °F 71.6 °F 100% 29.93 in 4.0 mi North 8.1 mph - 0.00 in   Overcast
2:54 PM 72.0 °F 72.0 °F 100% 29.94 in 4.0 mi North 10.4 mph - 0.00 in Rain Light Rain
3:19 PM 71.6 °F 71.6 °F 100% 29.92 in 2.5 mi North 10.4 mph - 0.00 in Rain Light Rain
3:28 PM 71.6 °F 71.6 °F 100% 29.92 in 1.5 mi North 10.4 mph - 0.00 in Rain Light Rain
3:54 PM 71.1 °F 71.1 °F 100% 29.93 in 1.5 mi North 10.4 mph - 0.00 in Rain Light Rain
4:01 PM 71.6 °F 71.6 °F 100% 29.92 in 3.0 mi North 10.4 mph - 0.00 in Rain Light Rain
4:08 PM 71.6 °F 71.6 °F 100% 29.92 in 2.0 mi North 10.4 mph - 0.00 in Rain Light Rain
4:27 PM 71.6 °F 71.6 °F 100% 29.92 in 1.5 mi North 8.1 mph - 0.01 in Rain Light Rain
4:39 PM 69.8 °F 69.8 °F 100% 29.92 in 1.8 mi North 9.2 mph - 0.03 in Rain Light Rain
4:54 PM 70.0 °F 70.0 °F 100% 29.94 in 1.8 mi North 10.4 mph - 0.04 in Rain Rain
5:04 PM 69.8 °F 69.8 °F 100% 29.93 in 1.2 mi North 11.5 mph - 0.01 in Rain Rain
5:11 PM 69.8 °F 69.8 °F 100% 29.93 in 1.0 mi North 11.5 mph - 0.03 in Rain Rain
5:23 PM 69.8 °F 69.8 °F 100% 29.93 in 1.2 mi North 11.5 mph 19.6 mph 0.04 in Rain Light Rain
5:32 PM 69.8 °F 69.8 °F 100% 29.93 in 1.8 mi North 10.4 mph 18.4 mph 0.05 in Rain Light Rain
5:35 PM 69.8 °F 69.8 °F 100% 29.93 in 2.0 mi North 12.7 mph 18.4 mph 0.05 in Rain Light Rain
5:41 PM 69.8 °F 69.8 °F 100% 29.93 in 1.5 mi North 10.4 mph 19.6 mph 0.06 in Rain Rain
5:54 PM 69.1 °F 69.1 °F 100% 29.95 in 1.5 mi North 11.5 mph 18.4 mph 0.08 in Rain Light Rain
6:01 PM 69.8 °F 69.8 °F 100% 29.94 in 1.8 mi North 11.5 mph 19.6 mph 0.01 in Rain Rain
6:08 PM 69.8 °F 69.8 °F 100% 29.94 in 1.5 mi North 15.0 mph 23.0 mph 0.02 in Rain Light Rain
6:32 PM 69.8 °F 69.8 °F 100% 29.96 in 2.0 mi North 9.2 mph - 0.05 in Rain Rain
6:54 PM 69.1 °F 69.1 °F 100% 29.98 in 2.0 mi North 10.4 mph - 0.10 in Rain Rain
7:03 PM 69.8 °F 69.8 °F 100% 29.97 in 1.5 mi North 12.7 mph 19.6 mph 0.06 in Rain Heavy Rain
7:07 PM 69.8 °F 69.8 °F 100% 29.97 in 1.8 mi North 12.7 mph 20.7 mph 0.10 in Rain Heavy Rain
7:17 PM 69.8 °F 69.8 °F 100% 29.97 in 1.8 mi North 12.7 mph 19.6 mph 0.13 in Rain Heavy Rain
7:31 PM 69.8 °F 69.8 °F 100% 29.97 in 2.0 mi North 12.7 mph 21.9 mph 0.19 in Rain Rain
7:41 PM 69.8 °F 69.8 °F 100% 29.98 in 1.8 mi North 12.7 mph 20.7 mph 0.22 in Rain Rain
7:54 PM 69.1 °F 69.1 °F 100% 30.00 in 1.5 mi North 12.7 mph 24.2 mph 0.27 in Rain Heavy Rain
8:07 PM 69.8 °F 69.8 °F 100% 29.99 in 1.8 mi North 15.0 mph 24.2 mph 0.05 in Rain Heavy Rain
8:13 PM 69.8 °F 69.8 °F 100% 29.99 in 1.5 mi North 10.4 mph 24.2 mph 0.08 in Rain Heavy Rain
8:22 PM 69.8 °F 69.8 °F 100% 29.98 in 2.0 mi NNE 15.0 mph 21.9 mph 0.11 in Rain Rain
8:32 PM 69.8 °F 69.8 °F 100% 29.98 in 2.0 mi NNE 11.5 mph 21.9 mph 0.13 in Rain Light Rain
8:45 PM 69.8 °F 69.8 °F 100% 29.98 in 2.5 mi NNE 11.5 mph - 0.14 in Rain Rain
8:54 PM 69.1 °F 69.1 °F 100% 29.99 in 2.0 mi NNE 8.1 mph 21.9 mph 0.16 in Rain Rain
9:12 PM 69.8 °F 69.8 °F 100% 29.98 in 1.8 mi North 12.7 mph 24.2 mph 0.03 in Rain Light Rain
9:19 PM 69.8 °F 69.8 °F 100% 29.98 in 2.0 mi NNE 11.5 mph 24.2 mph 0.03 in Rain Rain
9:30 PM 69.8 °F 69.8 °F 100% 29.98 in 4.0 mi NNE 13.8 mph 24.2 mph 0.04 in Rain Light Rain
9:54 PM 69.1 °F 69.1 °F 100% 29.99 in 4.0 mi NNE 13.8 mph 20.7 mph 0.06 in Rain Light Rain
10:54 PM 70.0 °F 70.0 °F 100% 30.00 in 3.0 mi NNE 13.8 mph 21.9 mph 0.02 in Rain Light Rain
11:06 PM 69.8 °F 69.8 °F 100% 29.98 in 4.0 mi NNE 11.5 mph 20.7 mph 0.01 in Rain Light Rain
11:29 PM 69.8 °F 69.8 °F 100% 29.99 in 6.0 mi NNE 12.7 mph 19.6 mph 0.01 in Rain Light Rain
11:42 PM 69.8 °F 69.8 °F 100% 29.98 in 5.0 mi NNE 9.2 mph 17.3 mph 0.01 in Rain Light Rain
11:54 PM 70.0 °F 70.0 °F 100% 29.99 in 6.0 mi NNE 10.4 mph - 0.02 in Rain Light Rain